RESURS
1 25394U 98043A   06061.41917745 -.00000021  00000-0  93571-5 0  3132
2 25394 098.5084 127.8568 0002147 111.4577 248.6831 14.24095539397201
FENGYUN1
1 25730U 99025A   06061.81566288  .00000186  00000-0  12456-3 0  6633
2 25730 098.6204 058.4097 0015352 083.3484 276.9432 14.11809152351001
OKEAN-0
1 25860U 99039A   06061.65456256  .00000081  00000-0  19780-4 0  6820
2 25860 097.7408 080.9208 0001832 083.6851 276.4563 14.73341038356067
NOAA-16
1 26536U 00055A   06061.80868161  .00000082  00000-0  44302-4 0  7741
2 26536 099.0538 027.2450 0011331 060.0735 300.2037 14.12318994280566
NOAA-17
1 27453U 02032A   06061.77353377  .00000128  00000-0  56156-4 0  7977
2 27453 098.6316 136.0136 0012212 028.7672 331.4663 14.23754926191635
NOAA-18
1 28654U 05018A   06061.76576252  .00000017  00000-0  95825-5 0  3842
2 28654 098.7778 007.3757 0014246 159.6389 200.5836 14.10933451 40379
HUBBLE
1 20580U 90037B   06061.30668183  .00000489  00000-0  25405-4 0  5573
2 20580 028.4688 026.5976 0003899 132.7492 227.3428 14.99973985669031
UARS
1 21701U 91063B   06060.83666603  .00003593  00000-0  75830-4 0 07029
2 21701 056.9761 194.6979 0107103 006.9067 353.3493 15.42278702792738
PO-34
1 25520U 98064B   06061.55113599  .00000632  00000-0  21682-4 0  4058
2 25520 028.4586 024.4899 0005680 156.1636 203.9210 15.16624934405841
ISS
1 25544U 98067A   06062.02858796  .00014457  00000-0  10347-3 0  4544
2 25544 051.6439 013.5666 0008141 319.8026 050.9752 15.73980138416431
OO-38
1 26063U 00004C   06060.76553521  .00000005  00000-0  21929-4 0 05603
2 26063 100.1893 332.4802 0037389 050.1193 310.3263 14.35754970319266
NO-45
1 26932U 01043D   06061.87925464  .00000110  00000-0  75189-4 0  2548
2 26932 067.0567 281.1917 0007574 286.9232 073.0996 14.29518202230776
UWE-1
1 28892U 05043C   06061.71536155  .00000093  00000-0  29553-4 0  3867
2 28892 098.1744 321.5960 0017783 139.9524 220.2979 14.59310546 18445
XI-V
1 28895U 05043F   06061.71051422  .00000143  00000-0  39909-4 0  3692
2 28895 098.1763 321.6343 0018699 140.8843 219.3719 14.59366354 18323
NCUBE2
1 28897U 05043H   06060.67065510  .00000164  00000-0  44172-4 0   352
2 28897 098.1769 320.6105 0017791 144.6822 215.5562 14.59519070 10441
AO-54
1 28933U 05035C   06061.11828668  .00039165  00000-0  24412-3 0   341
2 28933 051.6407 018.0038 0007565 350.6587 009.4451 15.76475793  4121
